Regional Weather Roundup
Issued by NWS

Home | Current Version | Previous Version | Text Only | Print | Product List | Glossary On
Versions: 1 2 3 4 5 6 7 8 9 10 11 12 13 14 15 16 17 18 19 20 21 22 23 24 25 26 27 28 29 30 31 32 33 34 35 36 37 38 39 40 41 42 43 44 45 46 47 48 49 50
000
ASUS44 KMEG 291510
RWRTN
TENNESSEE HOURLY STATE WEATHER ROUNDUP
NATIONAL WEATHER SERVICE MEMPHIS TN
900 AM CST THU JAN 29 2015

TNZ002-004-019-021-049-052-054-088>092-291600-
WEST TENNESSEE

CITY           SKY/WX    TMP DP  RH WIND       PRES   REMARKS
MEMPHIS INTL   MOSUNNY   57  44  62 SW7G16    30.08R
NWS MEMPHIS      N/A     56 N/A N/A MISG        N/A
JACKSON        SUNNY     57  41  55 SW13      30.05R
DYERSBURG      SUNNY     57  36  44 W21G26    30.05R
UNION CITY     SUNNY     55  45  67 SW17      30.00R
PARIS          SUNNY     55  39  54 SW15      30.01R
LEXINGTON      SUNNY     54  36  50 S14       30.05R
SAVANNAH       PTSUNNY   54  36  50 S13       30.09R
$$

TNZ008-025-027-028-033-062-065-066-291600-
NORTH MIDDLE TENNESSEE

CITY           SKY/WX    TMP DP  RH WIND       PRES   REMARKS
NASHVILLE      MOSUNNY   53  34  48 SW20G26   30.05R
CLARKSVILLE    SUNNY     56  38  50 SW18G26   29.99R
SMYRNA         PTSUNNY   52  34  50 SW14G21   30.07R
COOKEVILLE     MOSUNNY   46  36  66 S9        30.06F
CROSSVILLE     LGT RAIN  41  30  65 S12G25    30.11F
$$

TNZ061-075-076-078-094-096-097-291600-
SOUTH MIDDLE TENNESSEE

CITY           SKY/WX    TMP DP  RH WIND       PRES   REMARKS
FAYETTEVILLE   MOSUNNY   46  32  57 MISG      30.13F
TULLAHOMA      MOSUNNY   46  30  53 S13       30.12S
WINCHESTER     PTSUNNY   45  32  61 S12       30.15F
MCMINNVILLE    MOSUNNY   48  34  57 S13       30.08F
COLUMBIA       MOSUNNY   48  39  71 SW17      30.06R
SHELBYVILLE    PTSUNNY   50  36  57 S21       30.10F
$$

TNZ017-018-042-046-047-291600-
NORTHEAST TENNESSEE

CITY           SKY/WX    TMP DP  RH WIND       PRES   REMARKS
TRI CITIES     CLOUDY    32  23  69 CALM      30.17F
ELIZABETHTON   SUNNY     36  25  64 NE5       30.15S WCI  32
$$

TNZ012-013-036-069-073-074-291600-
CENTRAL EAST TENNESSEE

CITY           SKY/WX    TMP DP  RH WIND       PRES   REMARKS
KNOXVILLE      CLOUDY    33  26  75 CALM      30.19R
OAK RIDGE      LGT RAIN  39  27  62 VRB6      30.20F WCI  35
GATLINBURG     MOSUNNY   30  25  80 CALM      30.19R
MORRISTOWN     MOSUNNY   34  25  69 CALM      30.17F
$$

TNZ083-085-099-291600-
SOUTHEAST TENNESSEE

CITY           SKY/WX    TMP DP  RH WIND       PRES   REMARKS
CHATTANOOGA    CLOUDY    41  31  67 S5        30.24F
$$

SKY/WX REPORTED AS FAIR MEANS FEW OR NO CLOUDS BELOW
12 THOUSAND FEET.



USA.gov is the U.S. government's official web portal to all federal, state and local government web resources and services.